This is the latest recevied weather packets stored in our database for station/object N1IJV-10. If no packets are shown the sender has not sent any weather packets the latest 10 day(s).
| Time | Temp. | Humidity | Pressure | Rain* | Wind** | Luminosity | Snow |
|---|---|---|---|---|---|---|---|
| 1777665645 | 9.44° C | 59% | 1016.7 hPa | 0 mm | - | 94 W/m² | - |
| 1777665343 | 9.44° C | 54% | 1016.6 hPa | 0 mm | - | 98 W/m² | - |
| 1777665038 | 8.89° C | 54% | 1016.6 hPa | 0 mm | - | 88 W/m² | - |
| 1777664734 | 8.89° C | 56% | 1016.3 hPa | 0 mm | - | 86 W/m² | - |
| 1777664430 | 9.44° C | 56% | 1016.5 hPa | 0 mm | - | 72 W/m² | - |
| 1777664127 | 9.44° C | 56% | 1016.3 hPa | 0 mm | - | 64 W/m² | - |
| 1777663826 | 9.44° C | 55% | 1016.4 hPa | 0 mm | - | 104 W/m² | - |
| 1777663522 | 10° C | 54% | 1016.4 hPa | 0 mm | - | 112 W/m² | - |
| 1777663221 | 9.44° C | 54% | 1016.3 hPa | 0 mm | - | 101 W/m² | - |
| 1777662917 | 9.44° C | 53% | 1016.1 hPa | 0 mm | - | 127 W/m² | - |
| 1777662615 | 9.44° C | 56% | 1016.3 hPa | 0 mm | - | 131 W/m² | - |
| 1777662310 | 9.44° C | 53% | 1016 hPa | 0 mm | - | 138 W/m² | - |
| 1777662006 | 9.44° C | 54% | 1016 hPa | 0 mm | - | 114 W/m² | - |
| 1777661702 | 10° C | 56% | 1016.2 hPa | 0 mm | - | 81 W/m² | - |
| 1777661398 | 10° C | 55% | 1016.2 hPa | 0 mm | - | 127 W/m² | - |
| 1777661094 | 10° C | 54% | 1015.9 hPa | 0 mm | - | 185 W/m² | - |
| 1777660789 | 10° C | 54% | 1015.9 hPa | 0 mm | - | 212 W/m² | - |
| 1777660486 | 10° C | 57% | 1016.1 hPa | 0 mm | - | 261 W/m² | - |
| 1777660183 | 10° C | 53% | 1015.9 hPa | 0 mm | - | 225 W/m² | - |
| 1777659880 | 10° C | 54% | 1015.9 hPa | 0 mm | - | 225 W/m² | - |
| 1777659576 | 10.56° C | 57% | 1015.9 hPa | 0 mm | - | 241 W/m² | - |
| 1777659273 | 10° C | 53% | 1015.9 hPa | 0 mm | - | 462 W/m² | - |
| 1777658971 | 10° C | 54% | 1015.9 hPa | 0 mm | - | 230 W/m² | - |
| 1777658667 | 10° C | 58% | 1015.8 hPa | 0 mm | - | 331 W/m² | - |
| 1777658364 | 10° C | 55% | 1015.9 hPa | 0 mm | - | 411 W/m² | - |
* Rain latest hour (hover to see other rain measurements)
** Current wind speed in m/s (hover to see current wind gust speed)